| time (UTC) | temp F | wind direction | speed knots | gust knots | rain 1hr in | rain 24hr in | rain mn in | humidity % | barometer mb |
| 20260507074033 | 65 | 151 | 1.7 | 2.6 | 0.00 | 0.02 | 0.02 | 78 | 1017.6 |
| 20260507073014 | 65 | 166 | 1.7 | 2.6 | 0.00 | 0.02 | 0.02 | 77 | 1017.6 |
| 20260507072013 | 65 | 157 | 0.9 | 2.6 | 0.00 | 0.02 | 0.02 | 78 | 1017.3 |
| 20260507071014 | 64 | 155 | 1.7 | 2.6 | 0.00 | 0.02 | 0.02 | 77 | 1017.6 |
| 20260507070014 | 64 | 166 | 1.7 | 1.7 | 0.00 | 0.02 | 0.02 | 80 | 1017.6 |
| 20260507065013 | 64 | 160 | 0.9 | 1.7 | 0.00 | 0.02 | 0.02 | 80 | 1017.3 |
| 20260507064013 | 63 | 164 | 0.9 | 2.6 | 0.00 | 0.02 | 0.02 | 79 | 1017.5 |
| 20260507063016 | 63 | 198 | 2.6 | 5.2 | 0.00 | 0.02 | 0.02 | 77 | 1017.3 |
| 20260507062014 | 63 | 177 | 1.7 | 2.6 | 0.00 | 0.02 | 0.02 | 80 | 1017.3 |
| 20260507061016 | 62 | 177 | 0.9 | 1.7 | 0.00 | 0.02 | 0.02 | 81 | 1017.3 |
| 20260507060030 | 62 | 172 | 0.0 | 0.9 | 0.00 | 0.02 | 0.02 | 84 | 1017.5 |
| 20260507055030 | 61 | 174 | 0.9 | 2.6 | 0.00 | 0.02 | 0.02 | 86 | 1017.3 |
| 20260507054029 | 60 | 161 | 1.7 | 1.7 | 0.01 | 0.02 | 0.02 | 86 | 1016.9 |
| 20260507053014 | 60 | 152 | 0.0 | 0.9 | 0.01 | 0.02 | 0.02 | 87 | 1016.6 |
| 20260507052013 | 60 | 161 | 0.9 | 1.7 | 0.01 | 0.02 | 0.02 | 85 | 1016.9 |
| 20260507051015 | 60 | 161 | 1.7 | 2.6 | 0.02 | 0.02 | 0.02 | 84 | 1016.9 |
| 20260507050012 | 60 | 152 | 0.0 | 2.6 | 0.02 | 0.02 | 0.02 | 85 | 1016.6 |
| 20260507045013 | 60 | 170 | 0.9 | 2.6 | 0.02 | 0.02 | 0.02 | 84 | 1016.9 |
| 20260507044024 | 60 | 156 | 0.9 | 1.7 | 0.01 | 0.01 | 0.01 | 84 | 1016.6 |
| 20260507043013 | 60 | 162 | 0.9 | 2.6 | 0.01 | 0.01 | 0.01 | 81 | 1016.5 |
| 20260507042012 | 60 | 170 | 0.9 | 1.7 | 0.01 | 0.01 | 0.01 | 83 | 1016.4 |
| 20260507041011 | 60 | 157 | 1.7 | 2.6 | 0.00 | 0.00 | 0.00 | 85 | 1016.3 |
| 20260507040014 | 59 | 158 | 0.0 | 0.0 | 0.00 | 0.00 | 0.00 | 93 | 1016.3 |
| 20260507035014 | 59 | 158 | 0.0 | 0.0 | 0.00 | 0.00 | 0.00 | 93 | 1016.3 |
| 20260507033013 | 59 | 158 | 0.0 | 0.0 | 0.00 | 0.00 | 0.00 | 93 | 1016.3 |
| 20260507032012 | 59 | 158 | 0.0 | 0.0 | 0.00 | 0.00 | 0.00 | 93 | 1015.9 |
| 20260507031012 | 60 | 157 | 0.0 | 0.0 | 0.00 | 0.00 | 0.00 | 91 | 1015.9 |
| 20260507025013 | 59 | 156 | 0.9 | 0.9 | 0.00 | 0.00 | 0.00 | 91 | 1015.9 |
| 20260507024012 | 59 | 160 | 0.0 | 0.0 | 0.00 | 0.00 | 0.00 | 90 | 1015.9 |
| 20260507023013 | 60 | 160 | 0.0 | 0.0 | 0.00 | 0.00 | 0.00 | 89 | 1015.9 |
| 20260507022014 | 60 | 160 | 0.0 | 0.0 | 0.00 | 0.00 | 0.00 | 89 | 1015.6 |
| 20260507020013 | 60 | 166 | 0.9 | 1.7 | 0.00 | 0.00 | 0.00 | 89 | 1015.4 |
| 20260507015016 | 60 | 165 | 0.0 | 0.0 | 0.00 | 0.00 | 0.00 | 87 | 1015.3 |
| 20260507014032 | 59 | 168 | 0.0 | 0.0 | 0.00 | 0.00 | 0.00 | 90 | 1015.4 |
| 20260507013013 | 59 | 169 | 0.0 | 0.0 | 0.00 | 0.00 | 0.00 | 90 | 1015.6 |
| 20260507012012 | 59 | 169 | 0.0 | 0.0 | 0.00 | 0.00 | 0.00 | 89 | 1015.5 |
| 20260507011013 | 59 | 169 | 0.0 | 0.9 | 0.00 | 0.00 | 0.00 | 89 | 1015.2 |
| 20260507010013 | 60 | 169 | 0.0 | 0.9 | 0.00 | 0.00 | 0.00 | 88 | 1015.2 |
| 20260507005018 | 60 | 169 | 0.0 | 0.9 | 0.00 | 0.00 | 0.00 | 87 | 1015.2 |
| 20260507004013 | 61 | 169 | 0.0 | 0.9 | 0.00 | 0.00 | 0.00 | 85 | 1015.2 |
| 20260507003013 | 62 | 169 | 0.0 | 0.0 | 0.00 | 0.00 | 0.00 | 83 | 1015.2 |
| 20260507002020 | 62 | 169 | 0.0 | 0.0 | 0.00 | 0.00 | 0.00 | 82 | 1015.2 |
| 20260507001011 | 62 | 169 | 0.0 | 0.9 | 0.00 | 0.00 | 0.00 | 82 | 1014.9 |
| 20260507000013 | 62 | 180 | 0.9 | 0.9 | 0.00 | 0.00 | 0.00 | 82 | 1015.2 |
| 20260506235012 | 62 | 166 | 0.0 | 0.0 | 0.00 | 0.00 | 0.00 | 81 | 1015.2 |
| 20260506234013 | 63 | 164 | 0.0 | 0.9 | 0.00 | 0.00 | 0.00 | 81 | 1015.2 |
| 20260506233014 | 63 | 174 | 0.0 | 1.7 | 0.00 | 0.00 | 0.00 | 80 | 1015.2 |
| 20260506232013 | 63 | 171 | 1.7 | 4.3 | 0.00 | 0.00 | 0.00 | 79 | 1015.0 |
| 20260506231015 | 63 | 174 | 0.9 | 2.6 | 0.00 | 0.00 | 0.00 | 79 | 1014.9 |
| 20260506230015 | 63 | 180 | 0.9 | 4.3 | 0.00 | 0.00 | 0.00 | 78 | 1015.0 |
| 20260506225013 | 64 | 173 | 0.9 | 1.7 | 0.00 | 0.00 | 0.00 | 77 | 1015.2 |
| 20260506224013 | 64 | 185 | 0.9 | 2.6 | 0.00 | 0.00 | 0.00 | 76 | 1014.9 |
| 20260506223016 | 64 | 190 | 0.9 | 1.7 | 0.00 | 0.00 | 0.00 | 75 | 1014.9 |
| 20260506222013 | 64 | 174 | 0.9 | 2.6 | 0.00 | 0.00 | 0.00 | 73 | 1015.0 |
| 20260506221012 | 64 | 172 | 0.9 | 1.7 | 0.00 | 0.00 | 0.00 | 72 | 1014.9 |
| 20260506220016 | 64 | 169 | 0.0 | 0.0 | 0.00 | 0.00 | 0.00 | 71 | 1014.9 |
| 20260506215014 | 64 | 169 | 0.0 | 0.9 | 0.00 | 0.00 | 0.00 | 70 | 1014.8 |
| 20260506213013 | 65 | 152 | 0.0 | 1.7 | 0.00 | 0.00 | 0.00 | 68 | 1014.6 |
| 20260506212012 | 66 | 159 | 0.9 | 1.7 | 0.00 | 0.00 | 0.00 | 65 | 1014.6 |
| 20260506211012 | 67 | 163 | 0.0 | 0.9 | 0.00 | 0.00 | 0.00 | 62 | 1014.5 |
| 20260506210012 | 68 | 166 | 0.0 | 0.9 | 0.00 | 0.00 | 0.00 | 59 | 1014.2 |
| 20260506204013 | 69 | 162 | 0.9 | 2.6 | 0.00 | 0.00 | 0.00 | 56 | 1014.2 |
| 20260506203014 | 69 | 169 | 1.7 | 2.6 | 0.00 | 0.00 | 0.00 | 56 | 1014.1 |
| 20260506202019 | 70 | 178 | 0.9 | 5.2 | 0.00 | 0.00 | 0.00 | 55 | 1013.9 |
| 20260506201012 | 69 | 218 | 1.7 | 5.2 | 0.00 | 0.00 | 0.00 | 55 | 1013.6 |
| 20260506200012 | 69 | 186 | 0.9 | 1.7 | 0.00 | 0.00 | 0.00 | 56 | 1013.5 |
| 20260506195013 | 69 | 174 | 0.9 | 2.6 | 0.00 | 0.00 | 0.00 | 55 | 1013.5 |
| 20260506194012 | 66 | 170 | 1.7 | 2.6 | 0.00 | 0.00 | 0.00 | 60 | 1013.5 |
| 20260506193013 | 67 | 167 | 0.0 | 0.0 | 0.00 | 0.00 | 0.00 | 58 | 1013.3 |
| 20260506192013 | 67 | 168 | 0.9 | 5.2 | 0.00 | 0.00 | 0.00 | 57 | 1013.2 |
| 20260506191013 | 66 | 156 | 0.0 | 0.0 | 0.00 | 0.00 | 0.00 | 64 | 1012.9 |
| 20260506190013 | 66 | 155 | 0.0 | 0.0 | 0.00 | 0.00 | 0.00 | 66 | 1012.9 |
| 20260506185014 | 65 | 149 | 0.0 | 0.0 | 0.00 | 0.00 | 0.00 | 67 | 1012.8 |
| 20260506184011 | 67 | 149 | 0.0 | 0.0 | 0.00 | 0.00 | 0.00 | 62 | 1012.5 |
| 20260506183014 | 67 | 149 | 0.0 | 0.0 | 0.00 | 0.00 | 0.00 | 60 | 1012.5 |
| 20260506182013 | 68 | 149 | 0.0 | 0.0 | 0.00 | 0.00 | 0.00 | 60 | 1012.2 |
| 20260506181012 | 69 | 149 | 0.0 | 0.0 | 0.00 | 0.00 | 0.00 | 60 | 1012.2 |
| 20260506180012 | 69 | 149 | 0.0 | 0.0 | 0.00 | 0.00 | 0.00 | 60 | 1012.2 |
| 20260506175013 | 70 | 149 | 0.0 | 0.0 | 0.00 | 0.00 | 0.00 | 61 | 1012.2 |
| 20260506174017 | 71 | 149 | 0.0 | 0.0 | 0.00 | 0.00 | 0.00 | 59 | 1012.2 |
| 20260506173012 | 73 | 149 | 0.0 | 0.0 | 0.00 | 0.00 | 0.00 | 55 | 1012.3 |
| 20260506172012 | 74 | 164 | 0.0 | 0.0 | 0.00 | 0.00 | 0.00 | 50 | 1012.2 |
| 20260506171011 | 75 | 151 | 0.0 | 0.9 | 0.00 | 0.00 | 0.00 | 50 | 1011.9 |
| 20260506170012 | 76 | 157 | 0.0 | 1.7 | 0.00 | 0.00 | 0.00 | 46 | 1012.1 |
| 20260506164012 | 77 | 154 | 0.0 | 0.9 | 0.00 | 0.00 | 0.00 | 45 | 1012.1 |
| 20260506163013 | 78 | 146 | 0.9 | 1.7 | 0.00 | 0.00 | 0.00 | 43 | 1012.2 |
| 20260506162015 | 79 | 152 | 0.9 | 2.6 | 0.00 | 0.00 | 0.00 | 40 | 1012.2 |
| 20260506161011 | 79 | 157 | 0.9 | 1.7 | 0.00 | 0.00 | 0.00 | 40 | 1012.2 |
| 20260506155011 | 80 | 157 | 1.7 | 4.3 | 0.00 | 0.00 | 0.00 | 38 | 1012.5 |
| 20260506154013 | 81 | 146 | 0.9 | 5.2 | 0.00 | 0.00 | 0.00 | 37 | 1012.5 |
| 20260506153011 | 79 | 157 | 3.5 | 5.2 | 0.00 | 0.00 | 0.00 | 38 | 1012.6 |
| 20260506152012 | 80 | 157 | 1.7 | 2.6 | 0.00 | 0.00 | 0.00 | 38 | 1012.8 |
| 20260506151011 | 80 | 155 | 2.6 | 5.2 | 0.00 | 0.00 | 0.00 | 38 | 1012.7 |
| 20260506150018 | 81 | 157 | 1.7 | 5.2 | 0.00 | 0.00 | 0.00 | 36 | 1012.9 |
| 20260506145013 | 81 | 149 | 0.9 | 6.1 | 0.00 | 0.00 | 0.00 | 35 | 1012.7 |
| 20260506143012 | 82 | 157 | 0.9 | 5.2 | 0.00 | 0.00 | 0.00 | 33 | 1012.9 |
| 20260506141012 | 82 | 159 | 2.6 | 7.0 | 0.00 | 0.00 | 0.00 | 34 | 1013.1 |
| 20260506140012 | 82 | 142 | 2.6 | 7.8 | 0.00 | 0.00 | 0.00 | 36 | 1013.2 |
| 20260506133011 | 82 | 167 | 4.3 | 6.1 | 0.00 | 0.00 | 0.00 | 35 | 1013.5 |
| 20260506132010 | 82 | 158 | 1.7 | 6.1 | 0.00 | 0.00 | 0.00 | 35 | 1013.5 |
| 20260506131012 | 82 | 170 | 3.5 | 6.1 | 0.00 | 0.00 | 0.00 | 34 | 1013.5 |
| 20260506130010 | 80 | 174 | 2.6 | 7.8 | 0.00 | 0.00 | 0.00 | 35 | 1013.9 |
| 20260506123011 | 81 | 177 | 3.5 | 6.1 | 0.00 | 0.00 | 0.00 | 34 | 1014.2 |
| 20260506121012 | 80 | 170 | 0.0 | 7.8 | 0.00 | 0.00 | 0.00 | 35 | 1014.3 |
| 20260506115011 | 80 | 215 | 4.3 | 7.8 | 0.00 | 0.00 | 0.00 | 35 | 1014.9 |
| 20260506114011 | 79 | 196 | 4.3 | 7.8 | 0.00 | 0.00 | 0.00 | 36 | 1014.9 |
| 20260506112011 | 79 | 169 | 4.3 | 7.0 | 0.00 | 0.00 | 0.00 | 38 | 1015.2 |
| 20260506111011 | 78 | 164 | 2.6 | 8.7 | 0.00 | 0.00 | 0.00 | 37 | 1015.2 |
| 20260506110012 | 79 | 156 | 2.6 | 7.0 | 0.00 | 0.00 | 0.00 | 38 | 1015.2 |
| 20260506105013 | 78 | 151 | 4.3 | 7.0 | 0.00 | 0.00 | 0.00 | 36 | 1015.2 |
| 20260506103011 | 77 | 167 | 6.1 | 7.8 | 0.00 | 0.00 | 0.00 | 37 | 1015.2 |
| 20260506102013 | 78 | 142 | 2.6 | 8.7 | 0.00 | 0.00 | 0.00 | 38 | 1015.6 |
| 20260506101013 | 77 | 172 | 2.6 | 6.1 | 0.00 | 0.00 | 0.00 | 37 | 1015.6 |
| 20260506100015 | 77 | 188 | 5.2 | 7.8 | 0.00 | 0.00 | 0.00 | 38 | 1015.7 |
| 20260506094023 | 76 | 166 | 2.6 | 7.0 | 0.00 | 0.00 | 0.00 | 38 | 1015.9 |
| 20260506093049 | 76 | 160 | 2.6 | 8.7 | 0.00 | 0.00 | 0.00 | 38 | 1015.9 |
| 20260506092012 | 76 | 139 | 1.7 | 7.0 | 0.00 | 0.00 | 0.00 | 40 | 1015.9 |
| 20260506090026 | 74 | 159 | 3.5 | 6.1 | 0.00 | 0.00 | 0.00 | 40 | 1016.2 |
| 20260506085012 | 74 | 155 | 1.7 | 7.8 | 0.00 | 0.00 | 0.00 | 39 | 1016.3 |
| 20260506084010 | 74 | 181 | 4.3 | 7.8 | 0.00 | 0.00 | 0.00 | 39 | 1016.3 |
| 20260506083010 | 74 | 168 | 3.5 | 7.0 | 0.00 | 0.00 | 0.00 | 41 | 1016.3 |
| 20260506081012 | 75 | 168 | 1.7 | 4.3 | 0.00 | 0.00 | 0.00 | 41 | 1016.3 |